Location: Montemiletto
(41.0167°N, 14.9000°E)
Time: 15:37:29
(UTC+00:00)

Daily predictions for brighter satellites

Satellite Brightness Start Highest point End
(mag) Time Altitude Azimuth Time Altitude Azimuth Time Altitude Azimuth
Lacrosse 5 rocket 3.1 15:58:25 10° N 16:00:34 14° NNE 16:02:47 10° ENE
Cosmos 1092 Rocket 4.1 15:58:34 10° N 16:04:53 64° E 16:11:07 10° SSE
USA 276 3.8 16:02:10 10° WNW 16:05:04 36° SW 16:07:57 10° SSE
COSMOS 2455 2.9 15:59:42 10° SSW 16:05:42 76° ESE 16:11:44 10° NNE
Cosmos 1666 4.1 16:03:28 10° NNE 16:06:04 18° ENE 16:08:40 10° ESE
Cosmos 1814 Rocket 4.3 16:09:19 10° S 16:14:17 45° ESE 16:19:13 10° NNE
Cosmos 2322 Rocket 3.9 16:13:55 10° NNE 16:16:19 13° NE 16:18:22 11° ENE
Cosmos 1697 Rocket 2.8 16:10:58 10° NNW 16:16:36 85° WSW 16:22:13 10° SSE
PSLV R/B 4.3 16:13:45 10° SE 16:17:05 33° ENE 16:20:28 10° N
CZ-4C R/B 3.3 16:11:22 10° NNW 16:18:20 46° NE 16:26:22 10° ESE
Cosmos 921 Rocket 4.4 16:15:32 10° SE 16:18:28 19° E 16:21:05 11° NE
NOAA 12 4.3 16:14:00 10° S 16:19:19 78° WSW 16:24:40 10° NNW
Cosmos 1980 Rocket 2.3 16:16:18 10° NNW 16:21:52 55° ENE 16:27:22 10° SE
Meteor 2-21 4.4 16:17:06 10° N 16:23:09 66° E 16:29:08 10° SSE
ATLAS CENTAUR R/B 3.8 16:13:14 10° WSW 16:24:08 52° NW 16:28:37 10° NNE
Cosmos 1933 4.0 16:21:57 10° SSW 16:25:56 58° W 16:29:55 10° N
COSMO-SKYMED 1 3.5 16:23:26 10° NE 16:27:09 27° E 16:30:50 10° SSE
Cosmos 2279 Rocket 4.2 16:21:35 10° SSE 16:27:31 50° E 16:33:29 10° NNE
Cosmos 1898 Rocket 4.2 16:22:34 10° NNW 16:27:43 60° WSW 16:32:48 10° S
Cosmos 1627 Rocket 4.4 16:21:37 10° N 16:27:48 81° E 16:33:55 10° S
FengYun 1-2 T 4.4 16:22:16 10° S 16:27:52 81° WSW 16:33:25 10° NNW
CZ-4B R/B 3.9 16:24:40 10° S 16:28:36 50° W 16:32:22 10° NNW
Cosmos 2369 3.7 16:22:55 10° NNW 16:28:41 80° ENE 16:34:23 10° SSE
Cosmos 1812 2.8 16:25:48 10° S 16:29:32 52° E 16:33:17 10° NNE
CORIOLIS 4.1 16:24:11 10° SSE 16:29:33 76° ENE 16:34:59 10° N
Cosmos 1633 Rocket 3.6 16:27:24 10° N 16:31:27 36° ENE 16:35:30 10° SE
NOSS 2-2 (C) 4.5 16:28:07 10° NNW 16:33:35 72° NE 16:41:16 10° SE
AQUARIUS 4.1 16:29:41 10° SSE 16:34:10 83° ENE 16:38:41 10° N
Cosmos 1818 4.3 16:29:39 10° NNW 16:34:31 31° NE 16:39:20 10° ESE
Cosmos 1151 Rocket 3.1 16:30:30 10° S 16:34:42 55° E 16:38:58 10° NNE
SL-16 R/B 3.3 16:31:37 10° N 16:35:57 22° NE 16:39:03 14° E
Cosmos 2082 Rocket 2.3 16:30:23 10° SSW 16:36:04 80° WNW 16:41:46 10° NNE
Meteor 1-5 Rocket 4.5 16:30:37 10° N 16:36:24 50° ENE 16:42:04 10° SSE
CZ-2C R/B 3.0 16:33:44 10° SW 16:37:12 24° SSE 16:40:15 11° ESE
USA 267 3.7 16:32:13 10° NE 16:38:35 56° NW 16:44:55 10° WSW
SMAP 3.3 16:34:22 10° S 16:39:00 74° WSW 16:43:40 10° NNW
ARGOS 3.6 16:40:35 10° SE 16:45:33 39° ENE 16:50:32 10° N
MOS 1-B 4.3 16:39:54 10° SSE 16:45:36 65° ENE 16:51:20 10° N
Meteor 1-14 Rocket 4.3 16:40:06 10° N 16:45:57 67° ENE 16:51:52 10° SSE
Cosmos 1634 Rocket 4.3 16:40:51 10° SSW 16:47:09 72° W 16:53:29 10° N
CZ-4B DEB 4.3 16:43:22 10° SSE 16:48:54 86° WSW 16:54:25 10° NNW
Landsat 5 4.1 16:48:37 22° NE 16:50:24 31° E 16:53:55 10° SSE
Cosmos 2208 Rocket 4.0 16:46:24 10° S 16:51:44 70° ESE 16:57:09 10° NNE
Cosmos 2278 3.6 16:46:15 10° NNW 16:51:58 69° ENE 16:57:36 10° SSE
Cosmos 2026 Rocket 4.3 16:46:19 10° NNW 16:52:23 67° W 16:58:22 10° S
Cosmos 1833 Rocket 4.5 16:49:23 10° WSW 16:54:09 28° NW 16:58:57 10° N
Okean O Rocket 2.0 16:51:29 10° SE 16:55:40 42° ENE 16:59:52 10° N
Cosmos 44 Rocket 3.7 16:52:01 10° NNW 16:56:39 40° NE 16:59:24 21° ESE
X-37B 1.4 16:55:34 10° SSW 16:58:09 31° SSE 16:58:29 30° SE
Cosmos 1328 Rocket 3.5 16:53:58 10° S 16:58:22 72° E 17:02:49 10° NNE
H-2A R/B 1.9 16:53:59 10° SSE 16:59:10 85° ENE 17:04:14 10° NNW
Cosmos 1666 Rocket 3.5 16:54:43 10° N 16:59:10 89° W 17:03:33 10° S
MOS 1-B Rocket 4.1 16:53:48 10° NNE 16:59:54 86° ESE 17:06:57 10° SSW
Cosmos 1470 Rocket 3.8 16:58:17 10° N 17:02:35 45° ENE 17:06:53 10° SSE
Meteor 2-8 Rocket 4.4 16:59:45 10° S 17:05:52 77° E 17:12:03 10° N
ISS -3.8 17:03:38 10° NW 17:07:02 84° SW 17:08:21 35° SE
CZ-2C R/B 2.4 17:04:19 10° NNE 17:09:31 80° ESE 17:14:41 10° S
USA 234 3.2 17:03:53 10° SE 17:10:27 82° NE 17:17:00 10° NW
Cosmos 1125 Rocket 3.8 17:05:56 10° N 17:10:54 41° ENE 17:14:05 20° SE
Meteor 1-27 Rocket 4.1 17:07:22 10° SSE 17:12:26 39° E 17:14:11 31° NE
SKYMED 2 3.5 17:11:18 12° NNE 17:15:21 87° WNW 17:19:41 10° SSW
CZ-2D R/B 4.3 17:12:18 10° S 17:16:00 47° W 17:19:43 10° NNW
CZ-4B R/B 3.1 17:12:41 10° SSE 17:18:07 89° WSW 17:23:30 10° NNW
Meteor 2-6 Rocket 4.4 17:15:20 10° SSW 17:21:05 76° W 17:26:43 10° N
Cosmos 1655 Rocket 3.9 17:14:49 10° N 17:21:11 67° E 17:27:28 10° SSE
TRACE 4.5 17:20:44 58° NE 17:21:18 71° E 17:24:59 10° S
SJ-11-01 4.2 17:17:45 10° SSE 17:22:30 85° ENE 17:27:16 10° NNW
APEX 2.8 17:19:09 10° SSW 17:23:10 82° ESE 17:23:25 75° ENE
ATLAS 5 CENTAUR R/B 3.2 17:22:55 10° NNW 17:26:27 26° N 17:26:27 26° N
deb Chang Zheng 4 3.7 17:24:04 10° S 17:28:21 73° WSW 17:32:41 10° NNW
Cosmos 2360 Rocket 3.7 17:35:00 10° N 17:37:21 21° NNE 17:37:21 21° NNE
Lacrosse 5 rocket 2.0 17:36:20 10° NW 17:39:13 44° NNW 17:39:13 44° NNW
Cosmos 1515 Rocket 3.8 17:38:37 10° SSW 17:43:02 68° W 17:44:48 35° N
Meteor 1-11 Rocket 3.7 17:49:03 10° NNW 17:54:44 81° W 18:00:29 10° S
Tiangong 4.2 17:52:43 10° SSW 17:52:54 11° SSW 17:52:54 11° SSW
Cosmos 921 Rocket 4.5 17:52:38 10° SW 17:56:27 34° WNW 17:57:55 26° NNW
SL-08 RB Rocket 4.2 17:53:06 10° S 17:57:41 61° W 18:02:15 10° NNW
Cosmos 2322 Rocket 2.4 17:55:42 10° NNW 18:00:16 55° N 18:00:16 55° N
CZ-4C R/B 3.9 17:59:52 10° NW 18:07:08 49° WSW 18:15:19 10° S
DMSP B5D2-2 4.3 18:14:59 65° W 18:14:59 65° W 18:20:03 10° SSW
CZ-2C R/B 3.4 18:12:25 10° WSW 18:14:25 23° SW 18:14:25 23° SW
Aureole 3 Rocket 4.1 18:12:53 10° SSW 18:16:26 49° W 18:16:26 49° W
SL-16 R/B 2.6 18:14:53 10° NNW 18:20:28 60° WSW 18:21:04 57° SW
Okean O Rocket 4.3 18:29:09 10° SW 18:32:10 18° W 18:35:14 10° NW
